[[{"header":{"parameterUnit":"m.s-1","parameterCategory":1,"la1":30.2991,"la2":30.254,"lo1":-89.0895,"lo2":-89.0444,"dy":0.0017,"dx":0.0017,"nx":28,"ny":28,"refTime":"2024-12-26T09:00:00:Z","depth":0,"parameterNumber":2,"parameterNumberName":"U-component_of_WINDS"},"data":[0,0,0,0,0,0,0,0,0,0,0,0,0,0,0,0,0,0,0,0,0,0,0,0,0,0,0,0,0,0,0,0,0,0,0,0,0,0,0,0,0,0,0,0,0,0,0,0,0,0,0,0,0,0,0,0,0,0,-7.14,-7.14,0,-7.143,-7.143,-7.1431,-7.1353,-7.135,-7.1348,-7.1346,-7.1371,-7.1374,-7.1377,0,0,0,0,0,0,0,0,0,0,0,0,0,-7.1272,-7.1274,-7.14,-7.14,-7.1401,-7.143,-7.143,-7.1431,-7.1353,-7.135,-7.1347,-7.1345,-7.137,-7.1374,-7.1377,0,0,0,0,0,0,0,0,0,0,0,0,0,-7.1317,-7.1275,-7.14,-7.1366,-7.1363,-7.143,-7.143,-7.1431,-7.1354,-7.135,-7.1347,-7.1343,-7.1369,-7.1374,-7.1378,-7.1478,0,0,-7.1391,-7.1393,0,0,0,0,0,0,0,0,-7.1314,-7.1322,-7.137,-7.1368,-7.1365,-7.1384,-7.1394,-7.1446,-7.1355,-7.1357,-7.1346,-7.1341,-7.1378,-7.1382,-7.1395,-7.1479,-7.148,-7.1392,-7.1394,-7.1396,-7.1398,0,0,0,0,0,0,0,-7.1311,-7.132,-7.1412,-7.1371,-7.1368,-7.1348,-7.135,-7.1404,-7.1387,-7.1357,-7.1351,-7.1356,-7.1376,-7.1391,-7.1395,-7.148,-7.1392,-7.1396,-7.1398,-7.14,-7.1646,-7.165,0,0,0,0,0,0,-7.1313,-7.1318,-7.1411,-7.1413,-7.1331,-7.1353,-7.1356,-7.1382,-7.1387,-7.1384,-7.1359,-7.1352,-7.1385,-7.139,-7.1396,-7.1511,-7.1396,-7.14,-7.1403,-7.1643,-7.1647,-7.1652,0,0,0,0,0,0,-7.1311,-7.1322,-7.1409,-7.1364,-7.1373,-7.1359,-7.1389,-7.1384,-7.1399,-7.1389,-7.1385,-7.1378,-7.1383,-7.139,-7.1458,-7.1511,-7.1402,-7.1406,-7.1638,-7.1644,-7.1649,-7.1744,0,0,0,0,0,0,-7.1308,-7.1322,-7.136,-7.1365,-7.1376,-7.1473,-7.1392,-7.1387,-7.1407,-7.1399,-7.1405,-7.1402,-7.138,-7.1452,-7.1462,-7.1515,-7.141,-7.1633,-7.1641,-7.1648,-7.1735,-7.1752,-7.1766,0,0,0,0,0,-7.1303,-7.1385,-7.1363,-7.1374,-7.1424,-7.1476,-7.1482,-7.1456,-7.1412,-7.145,-7.1443,-7.1402,-7.1505,-7.146,-7.1471,-7.1525,-7.163,-7.1639,-7.1647,-7.1729,-7.1749,-7.1766,0,0,0,0,0,0,-7.1384,-7.1385,-7.136,-7.1446,-7.1462,-7.1463,-7.1509,-7.1478,-7.1505,-7.1495,-7.1461,-7.1463,-7.1538,-7.1539,-7.1489,-7.1622,-7.1559,-7.1571,-7.1617,-7.1636,-7.1651,-7.1647,-7.1414,0,0,0,0,0,-7.1413,-7.1456,-7.1454,-7.153,-7.1539,-7.1524,-7.1545,-7.1524,-7.1538,-7.1543,-7.1542,-7.1556,-7.1591,-7.1614,-7.1646,-7.1737,-7.1736,-7.178,-7.1796,-7.1808,-7.1817,-7.1863,-7.1882,-7.168,-7.168,-7.168,0,0,-7.147,-7.1476,-7.1505,-7.1546,-7.1555,-7.1599,-7.1529,-7.1578,-7.161,-7.155,-7.1614,-7.1615,-7.1628,-7.1708,-7.1743,-7.1711,-7.1873,-7.1819,-7.1829,-7.1831,-7.1874,-7.1893,-7.191,-7.1686,-7.1685,-7.1684,0,0,-7.1597,-7.1607,-7.1671,-7.1683,-7.1699,-7.1689,-7.1704,-7.1711,-7.1709,-7.1773,-7.1729,-7.1767,-7.1828,-7.1839,-7.1852,-7.1987,-7.1949,-7.1999,-7.2076,-7.2121,-7.2137,-7.2151,-7.2196,-7.2213,-7.2008,-7.2009,-7.2009,0,-7.1665,-7.1731,-7.1707,-7.176,-7.1778,-7.173,-7.1793,-7.1805,-7.183,-7.1844,-7.1809,-7.1885,-7.1891,-7.1972,-7.2005,-7.2019,-7.2033,-7.1995,-7.2138,-7.2151,-7.2163,-7.2206,-7.2223,-7.2014,-7.2014,-7.2013,-7.2013,0,-7.1814,-7.186,-7.191,-7.1937,-7.1962,-7.202,-7.2003,-7.2031,-7.2009,-7.2002,-7.2068,-7.2074,-7.2106,-7.2125,-7.2103,-7.2203,-7.2182,-7.2144,-7.2079,-7.2189,-7.2228,-7.2244,-7.2022,-7.202,-7.2019,-7.2017,0,0,-7.1987,-7.2003,-7.2021,-7.2033,-7.2049,-7.2084,-7.214,-7.2173,-7.2196,-7.2217,-7.226,-7.2316,-7.228,-7.2296,-7.2276,-7.2317,-7.242,-7.2272,-7.2272,-7.2296,-7.2526,-7.2552,-7.2572,-7.2397,-7.24,-7.2403,-7.2524,0,-7.2109,-7.2206,-7.2187,-7.2281,-7.2322,-7.2279,-7.2327,-7.2342,-7.2338,-7.2371,-7.2366,-7.2404,-7.2357,-7.2365,-7.2404,-7.2399,-7.2465,-7.2391,-7.2434,-7.2436,-7.2428,-7.2593,-7.262,-7.2734,-7.254,-7.2542,-7.2544,0,-7.2264,-7.2292,-7.2391,-7.24,-7.2417,-7.2461,-7.249,-7.2524,-7.2539,-7.2533,-7.2553,-7.2526,-7.2579,-7.2519,-7.2591,-7.2541,-7.2559,-7.256,-7.2563,-7.2562,-7.2493,-7.2592,-7.277,-7.2786,-7.2569,-7.2567,-7.2565,0,-7.2376,-7.2439,-7.2506,-7.2518,-7.2532,-7.2563,-7.2571,-7.2583,-7.2604,-7.263,-7.2643,-7.2674,-7.269,-7.2714,-7.2696,-7.2654,-7.2771,-7.2709,-7.2764,-7.2765,-7.2787,-7.2785,-7.2966,-7.2806,-7.2806,-7.2805,-7.2805,0,-7.2512,-7.2573,-7.2556,-7.2597,-7.2664,-7.2642,-7.2708,-7.271,-7.2722,-7.2761,-7.2727,-7.2764,-7.2739,-7.2774,-7.276,-7.2821,-7.2829,-7.2824,-7.2819,-7.2825,-7.2825,-7.2832,-7.2822,-7.281,-7.2809,-7.2808,-7.2807,0,-7.2646,-7.2638,-7.2707,-7.2717,-7.272,-7.2769,-7.2776,-7.2813,-7.2808,-7.2858,-7.2868,-7.286,-7.2899,-7.2885,-7.2926,-7.2917,-7.2994,-7.298,-7.2988,-7.2983,-7.3039,-7.3032,-7.3227,-7.325,-7.308,-7.3081,-7.3083,0,-7.2731,-7.2777,-7.2792,-7.2817,-7.2827,-7.2867,-7.289,-7.2871,-7.2895,-7.2918,-7.2952,-7.2989,-7.3017,-7.3082,-7.3078,-7.311,-7.3094,-7.3161,-7.3098,-7.3102,-7.309,-7.3086,-7.3089,-7.3171,-7.3173,-7.3175,-7.3176,0,-7.2881,-7.2875,-7.2909,-7.2943,-7.2971,-7.2997,-7.3018,-7.304,-7.3023,-7.3052,-7.3093,-7.3115,-7.3159,-7.3195,-7.3224,-7.3229,-7.3199,-7.3197,-7.321,-7.3214,-7.3216,-7.3212,-7.3018,-7.3191,-7.3189,-7.3188,-7.3187,-7.3187,-7.299,-7.3028,-7.3046,-7.3085,-7.3101,-7.3122,-7.3157,-7.3159,-7.3193,-7.3228,-7.3215,-7.3262,-7.3277,-7.3313,-7.3323,-7.3358,-7.3332,-7.3353,-7.3358,-7.3362,-7.3367,-7.3215,-7.3364,-7.3364,-7.3363,-7.3363,-7.3363,0,-7.3134,-7.3145,-7.3182,-7.3214,-7.3245,-7.3219,-7.3242,-7.3269,-7.3311,-7.3329,-7.3358,-7.3405,-7.3441,-7.3442,-7.3475,-7.3502,-7.3489,-7.3511,-7.3506,-7.3508,-7.3391,-7.3373,-7.3521,-7.3521,-7.3521,-7.3521,-7.3521,-7.3521,-7.3213,-7.3277,-7.3274,-7.3345,-7.3354,-7.34,-7.3416,-7.3435,-7.3449,-7.3504,-7.3534,-7.3536,-7.3546,-7.358,-7.3611,-7.3611,-7.3623,-7.3649,-7.3643,-7.3532,-7.3516,-7.3501,-7.3484,-7.3653,-7.3653,-7.3756,-7.3757,-7.3758]},{"header":{"parameterUnit":"m.s-1","parameterCategory":1,"la1":30.2991,"la2":30.254,"lo1":-89.0895,"lo2":-89.0444,"dy":0.0017,"dx":0.0017,"nx":28,"ny":28,"refTime":"2024-12-26T09:00:00:Z","depth":0,"parameterNumber":3,"parameterNumberName":"V-component_of_WINDS"},"data":[0,0,0,0,0,0,0,0,0,0,0,0,0,0,0,0,0,0,0,0,0,0,0,0,0,0,0,0,0,0,0,0,0,0,0,0,0,0,0,0,0,0,0,0,0,0,0,0,0,0,0,0,0,0,0,0,0,0,1.9461,1.946,0,1.9419,1.9419,1.9418,1.9382,1.9382,1.9381,1.9381,1.9335,1.9334,1.9334,0,0,0,0,0,0,0,0,0,0,0,0,0,1.9508,1.9507,1.9461,1.946,1.946,1.9419,1.9419,1.9418,1.9382,1.9382,1.9381,1.9381,1.9336,1.9335,1.9334,0,0,0,0,0,0,0,0,0,0,0,0,0,1.9479,1.9507,1.9461,1.9437,1.9434,1.942,1.9419,1.9418,1.9382,1.9382,1.9381,1.9381,1.9336,1.9335,1.9333,1.9338,0,0,1.933,1.9329,0,0,0,0,0,0,0,0,1.948,1.9477,1.9441,1.9439,1.9436,1.9405,1.9419,1.9391,1.9382,1.9402,1.9381,1.938,1.9359,1.9356,1.9349,1.9336,1.9334,1.9329,1.9329,1.9328,1.9328,0,0,0,0,0,0,0,1.9483,1.9479,1.9444,1.9441,1.9437,1.9428,1.9423,1.9413,1.9384,1.94,1.9398,1.9393,1.9357,1.935,1.9348,1.9333,1.9329,1.9328,1.9328,1.9327,1.9324,1.9324,0,0,0,0,0,0,1.9488,1.9481,1.9446,1.9443,1.9457,1.9428,1.9422,1.9416,1.9384,1.9379,1.9394,1.9392,1.9353,1.9349,1.9346,1.9351,1.9328,1.9327,1.9326,1.9323,1.9324,1.9325,0,0,0,0,0,0,1.949,1.9486,1.9447,1.9461,1.9456,1.9428,1.942,1.9415,1.9408,1.938,1.9374,1.9392,1.9352,1.9348,1.9341,1.9349,1.9326,1.9325,1.9322,1.9323,1.9324,1.936,0,0,0,0,0,0,1.9491,1.9486,1.9488,1.9461,1.9455,1.9443,1.9421,1.9415,1.9407,1.9403,1.9377,1.9371,1.9351,1.9343,1.934,1.9347,1.9324,1.9321,1.9323,1.9324,1.9358,1.9362,1.9365,0,0,0,0,0,1.9493,1.9498,1.9488,1.9484,1.9456,1.9444,1.944,1.9418,1.9407,1.9409,1.9391,1.9372,1.9349,1.9343,1.9339,1.9345,1.9321,1.9322,1.9324,1.9356,1.9361,1.9365,0,0,0,0,0,0,1.9524,1.9494,1.9482,1.9479,1.9465,1.9438,1.9438,1.9423,1.941,1.9408,1.938,1.9374,1.9371,1.9357,1.9351,1.9349,1.9332,1.9333,1.9358,1.9363,1.9366,1.937,1.9323,0,0,0,0,0,1.9531,1.9524,1.9498,1.9497,1.9491,1.9466,1.946,1.9444,1.9427,1.9421,1.9402,1.9386,1.9375,1.9368,1.9356,1.9356,1.935,1.9358,1.9362,1.9366,1.9367,1.9368,1.9372,1.933,1.933,1.933,0,0,1.9544,1.9527,1.9524,1.9503,1.949,1.9484,1.9461,1.9454,1.9449,1.9419,1.9412,1.9398,1.9378,1.9376,1.9373,1.9364,1.9377,1.9368,1.937,1.9369,1.937,1.9374,1.9377,1.9331,1.933,1.933,0,0,1.9565,1.9551,1.955,1.9538,1.952,1.9504,1.9504,1.948,1.947,1.9463,1.9441,1.9435,1.9416,1.9403,1.9395,1.9415,1.9398,1.9412,1.9431,1.9433,1.9436,1.9439,1.9448,1.9451,1.9413,1.9413,1.9413,0,1.9583,1.9573,1.9551,1.9547,1.954,1.9515,1.9514,1.9503,1.9481,1.9476,1.9466,1.9445,1.9429,1.9424,1.943,1.9423,1.9423,1.9414,1.9438,1.944,1.9442,1.945,1.9454,1.9415,1.9414,1.9414,1.9414,0,1.9598,1.9592,1.9593,1.9575,1.9567,1.9565,1.9543,1.9538,1.9524,1.9509,1.9504,1.9485,1.947,1.9468,1.9453,1.9462,1.9457,1.9443,1.9425,1.9449,1.9456,1.9459,1.9417,1.9417,1.9416,1.9416,0,0,1.9635,1.9608,1.9609,1.9601,1.958,1.9574,1.9572,1.9559,1.9556,1.9542,1.9539,1.9526,1.9514,1.9504,1.9488,1.9489,1.9509,1.9475,1.9474,1.9483,1.9519,1.9531,1.9535,1.9498,1.9498,1.9499,1.9522,0,1.9654,1.9648,1.963,1.963,1.9625,1.9602,1.96,1.9587,1.9574,1.9567,1.9552,1.9544,1.9528,1.9522,1.9523,1.9506,1.9516,1.9504,1.9496,1.9496,1.9502,1.9538,1.9549,1.9572,1.9524,1.9524,1.9525,0,1.9674,1.9664,1.9664,1.9646,1.9643,1.9642,1.963,1.9624,1.9609,1.96,1.9591,1.9574,1.957,1.9555,1.955,1.9543,1.9538,1.953,1.953,1.9529,1.9512,1.9538,1.9578,1.9582,1.9529,1.9528,1.9528,0,1.9703,1.969,1.9689,1.9683,1.9661,1.9661,1.9652,1.9637,1.9631,1.9621,1.9617,1.9606,1.96,1.9592,1.9573,1.9563,1.9571,1.9553,1.9563,1.9564,1.9566,1.9566,1.9606,1.9562,1.9562,1.9562,1.9562,0,1.9725,1.9727,1.9702,1.9701,1.9703,1.9682,1.9684,1.9673,1.966,1.9657,1.9636,1.9634,1.9609,1.9604,1.9589,1.9588,1.9585,1.9578,1.9574,1.958,1.9581,1.9577,1.9575,1.9563,1.9563,1.9562,1.9562,0,1.9758,1.9741,1.9739,1.972,1.9715,1.9717,1.9701,1.97,1.9687,1.9684,1.9681,1.966,1.9654,1.9634,1.9622,1.9612,1.9616,1.9608,1.9622,1.9619,1.9632,1.9631,1.9671,1.9676,1.9628,1.9628,1.9629,0,1.9774,1.9775,1.9757,1.9754,1.9747,1.9742,1.9737,1.9718,1.9713,1.9699,1.97,1.9692,1.9685,1.9675,1.9659,1.965,1.9642,1.9657,1.964,1.9648,1.9644,1.9645,1.9645,1.966,1.9661,1.9661,1.9662,0,1.9804,1.9797,1.9791,1.9783,1.9779,1.9771,1.9763,1.9762,1.974,1.9736,1.973,1.9725,1.9714,1.9707,1.9696,1.9686,1.9671,1.9667,1.967,1.9676,1.9685,1.9682,1.9632,1.9666,1.9666,1.9665,1.9665,1.9665,1.9829,1.983,1.9819,1.9814,1.9806,1.9799,1.9798,1.9786,1.9781,1.9772,1.9761,1.9757,1.9744,1.9728,1.972,1.9717,1.9708,1.9711,1.9712,1.9713,1.9717,1.9685,1.9715,1.9714,1.9714,1.9714,1.9714,0,1.986,1.9852,1.9848,1.9838,1.9835,1.9822,1.9813,1.9811,1.9808,1.9798,1.9793,1.9787,1.9781,1.9765,1.9758,1.9758,1.9751,1.9757,1.9757,1.9756,1.9724,1.9724,1.9763,1.9763,1.9763,1.9763,1.9763,1.9763,1.9875,1.9877,1.9869,1.9867,1.9859,1.9856,1.9852,1.9846,1.9839,1.9834,1.983,1.982,1.9809,1.9801,1.9795,1.979,1.9789,1.9798,1.9791,1.9762,1.9757,1.9753,1.9752,1.9797,1.9797,1.9823,1.9823,1.9823]}]]